Flag for U.S.A. Weather past 2 weeks in Akron, Ohio, U.S.A.

Now
44 °F

Partly sunny.


Feels Like: 42 °F
Forecast: 26 / 44 °F
Wind: 5 mph from Southeast

Location: Akron Fulton International Airport

Current Time: Dec 22, 2014 at 3:56:30 PM

Latest Report: Dec 22, 2014 at 2:54 PM


Visibility: 9 mi

Pressure: 29.98 "Hg

Humidity: 63%

Dew point: 32 °F

Location of AkronLocation

Historic Weather in Akron — Graph

°F

Akron temperature yesterday

Maximum temperature yesterday: 31 °F (at 9:54 AM)
Minimum temperature yesterday: 25 °F (at 10:54 PM)
Average temperature yesterday: 29 °F

Past Weeks' High & Low Weather Summary

 TemperatureHumidityPressure
High54 °F (Dec 15, 12:54 PM)92% (Dec 13, 3:54 AM)30.56 "Hg (Dec 13, 3:54 AM)
Low24 °F (Dec 22, 5:54 AM)31% (Dec 8, 1:54 PM)29.70 "Hg (Dec 16, 12:54 PM)
Average35 °F75%30.14 "Hg
* Reported Dec 7 2:54 PM — Dec 22 2:54 PM, Akron, Weather by CustomWeather, © 2014

Note: Actual official high and low records may vary slightly from our data, if they occured in-between our weather recording intervals... More about our weather records

Advertising

Akron weather history for previous 24 hours

 ConditionsComfort  
Time TempWeatherWind HumidityBarometerVisibility
2:54 PM
Dec 22
44 °FPartly sunny.5 mph63%29.98 "Hg9 mi
1:54 PM44 °FSunny.6 mph63%30.00 "Hg9 mi
12:54 PM42 °FSunny.5 mph65%30.03 "Hg8 mi
11:54 AM38 °FOvercast.5 mph70%30.07 "Hg8 mi
10:54 AM36 °FPartly sunny.7 mph73%30.11 "Hg7 mi
9:54 AM32 °FSunny.No wind75%30.11 "Hg6 mi
8:54 AM28 °FSunny.3 mph78%30.12 "Hg5 mi
7:54 AM26 °FSunny.No wind81%30.13 "Hg5 mi
6:54 AM25 °FClear.No wind81%30.12 "Hg7 mi
5:54 AM24 °FClear.No wind81%30.13 "Hg6 mi
4:54 AM25 °FClear.No wind81%30.14 "Hg7 mi
3:54 AM25 °FClear.No wind81%30.14 "Hg7 mi
2:54 AM27 °FClear.3 mph75%30.16 "Hg8 mi
1:54 AM27 °FClear.5 mph78%30.16 "Hg8 mi
12:54 AM27 °FClear.3 mph75%30.18 "Hg8 mi
11:54 PM
Dec 21
27 °FClear.3 mph75%30.21 "Hg8 mi
10:54 PM25 °FClear.No wind78%30.23 "Hg7 mi
9:54 PM27 °FClear.No wind75%30.24 "Hg8 mi
8:54 PM29 °FClear.3 mph69%30.23 "Hg8 mi
7:54 PM29 °FPassing clouds.5 mph69%30.25 "Hg8 mi
6:54 PM31 °FOvercast.No wind67%30.26 "Hg9 mi
5:54 PM31 °FOvercast.5 mph67%30.26 "Hg9 mi
4:54 PM31 °FOvercast.5 mph67%30.27 "Hg8 mi
3:54 PM31 °FOvercast.7 mph67%30.26 "Hg6 mi
Weather by CustomWeather, © 2014

See weather overviewHow to use our weather pages